$Date,$Time,DM0201B,DM0203B,DM0205B,DM0207B,DM0209B
05/03/99,00:00:01,45,306,-19,1,958
05/03/99,00:05:01,57,307,-19,1,958
05/03/99,00:10:01,45,318,-19,1,958
05/03/99,00:15:01,55,302,-19,1,958
05/03/99,00:20:01,44,315,-19,1,958
05/03/99,00:25:01,54,315,-19,1,958
05/03/99,00:30:01,44,315,-19,1,958
05/03/99,00:35:01,44,315,-19,1,958
05/03/99,00:40:01,44,315,-19,1,958
05/03/99,00:45:01,44,315,-19,1,958
05/03/99,00:50:01,44,315,-19,1,958
05/03/99,00:55:01,44,303,-19,1,958
05/03/99,01:00:01,44,303,-19,1,958
05/03/99,01:05:01,34,303,-19,1,958
05/03/99,01:10:01,34,303,-19,1,958
05/03/99,01:15:01,24,303,-19,1,958
05/03/99,01:20:01,18,308,-19,1,958
05/03/99,01:25:01,29,308,-19,1,958
05/03/99,01:30:01,29,308,-19,1,958
05/03/99,01:35:01,40,308,-19,1,958
05/03/99,01:40:01,50,308,-19,1,958
05/03/99,01:45:01,50,308,-19,1,958
05/03/99,01:50:01,40,321,-19,1,958
05/03/99,01:55:01,50,321,-19,1,958
05/03/99,02:00:01,50,331,-19,1,958
05/03/99,02:05:01,50,343,-19,1,958
05/03/99,02:10:01,50,343,-19,1,958
05/03/99,02:15:01,57,343,-19,1,958
05/03/99,02:20:01,57,1,-19,1,958
05/03/99,02:25:01,59,3,-19,1,960
05/03/99,02:30:01,87,14,-21,1,960
05/03/99,02:35:01,17,349,-21,1,960
05/03/99,02:40:01,48,192,-21,1,960
05/03/99,02:45:01,62,187,-21,1,960
05/03/99,02:50:01,59,187,-21,1,960
05/03/99,02:55:01,34,200,-21,1,960
05/03/99,03:00:01,47,200,-21,1,960
05/03/99,03:05:01,26,194,-21,1,960
05/03/99,03:10:01,15,316,-21,1,960
05/03/99,03:15:01,27,219,-21,1,960
05/03/99,03:20:01,19,247,-21,1,960
05/03/99,03:25:01,3,272,-21,1,960
05/03/99,03:30:01,20,308,-21,1,960
05/03/99,03:35:01,31,318,-21,1,960
05/03/99,03:40:01,44,350,-21,1,960
05/03/99,03:45:01,59,350,-21,1,960
05/03/99,03:50:01,59,350,-21,1,960
05/03/99,03:55:01,48,360,-21,1,960
05/03/99,04:00:01,60,337,-21,1,960
05/03/99,04:05:01,36,337,-21,1,960
05/03/99,04:10:01,14,347,-21,1,960
05/03/99,04:15:01,33,29,-21,1,960
05/03/99,04:20:01,47,8,-21,1,960
05/03/99,04:25:01,48,8,-21,1,960
05/03/99,04:30:01,48,8,-21,1,960
05/03/99,04:35:01,42,20,-21,1,960
05/03/99,04:40:01,30,41,-23,1,960
05/03/99,04:45:01,45,35,-23,1,960
05/03/99,04:50:01,29,55,-23,1,960
05/03/99,04:55:01,10,73,-23,1,960
05/03/99,05:00:01,47,172,-23,1,960
05/03/99,05:05:01,61,185,-23,1,960
05/03/99,05:10:01,59,175,-23,1,960
05/03/99,05:15:01,59,154,-23,1,960
05/03/99,05:20:01,54,154,-23,1,960
05/03/99,05:25:01,31,154,-23,1,960
05/03/99,05:30:01,30,154,-23,1,960
05/03/99,05:35:01,42,154,-23,1,960
05/03/99,05:40:01,30,154,-23,1,960
05/03/99,05:45:01,41,166,-23,1,960
05/03/99,05:50:01,41,166,-23,1,960
05/03/99,05:55:01,46,166,-23,1,960
05/03/99,06:00:01,29,162,-23,1,960
05/03/99,06:05:01,25,162,-23,1,960
05/03/99,06:10:01,27,162,-23,1,960
05/03/99,06:15:01,27,162,-23,1,960
05/03/99,06:20:01,38,174,-23,1,960
05/03/99,06:25:01,48,174,-23,1,960
05/03/99,06:30:01,60,164,-23,1,960
05/03/99,06:35:01,48,164,-23,1,960
05/03/99,06:40:01,54,164,-23,1,960
05/03/99,06:45:01,43,176,-23,1,960
05/03/99,06:50:01,33,176,-23,1,960
05/03/99,06:55:01,10,189,-23,1,960
05/03/99,07:00:01,0,189,-23,1,960
05/03/99,07:05:01,0,189,-23,1,960
05/03/99,07:10:01,23,189,-23,1,960
05/03/99,07:15:01,30,185,-23,1,960
05/03/99,07:20:01,53,161,-23,1,960
05/03/99,07:25:01,82,170,-23,1,960
05/03/99,07:30:01,78,171,-23,1,960
05/03/99,07:35:01,105,161,-23,1,960
05/03/99,07:40:01,119,160,-23,1,960
05/03/99,07:45:01,126,166,-23,1,960
05/03/99,07:50:01,142,171,-23,1,960
05/03/99,07:55:01,150,177,-23,1,960
05/03/99,08:00:01,135,177,-23,1,960
05/03/99,08:05:01,159,177,-23,1,960
05/03/99,08:10:01,131,177,-23,1,960
05/03/99,08:15:01,156,177,-23,1,960
05/03/99,08:20:01,121,177,-23,1,960
05/03/99,08:25:01,62,177,-23,1,960
05/03/99,08:30:01,25,160,-23,1,960
05/03/99,08:35:01,2,248,-23,1,960
05/03/99,08:40:01,2,12,-23,1,960
05/03/99,08:45:01,18,224,-23,1,960
05/03/99,08:50:01,41,177,-23,1,960
05/03/99,08:55:01,34,202,-23,1,960
05/03/99,09:00:01,44,197,-23,1,960
05/03/99,09:05:01,0,269,-23,1,960
05/03/99,09:10:01,19,295,-23,1,962
05/03/99,09:15:01,24,260,-23,1,962
05/03/99,09:20:01,10,311,-23,1,962
05/03/99,09:25:01,64,3,-23,1,962
05/03/99,09:30:01,44,3,-23,1,962
05/03/99,09:35:01,58,3,-23,1,962
05/03/99,09:40:01,82,13,-23,1,962
05/03/99,09:45:01,76,2,-23,1,962
05/03/99,09:50:01,53,15,-23,1,962
05/03/99,09:55:01,57,12,-23,1,962
05/03/99,10:00:01,82,12,-23,1,962
05/03/99,10:05:01,84,18,-23,1,962
05/03/99,10:10:01,77,6,-23,1,962
05/03/99,10:15:01,70,11,-23,1,962
05/03/99,10:20:01,103,11,-23,1,962
05/03/99,10:25:01,73,24,-23,1,962
05/03/99,10:30:01,88,15,-23,1,962
05/03/99,10:35:01,115,25,-23,1,962
05/03/99,10:40:01,100,13,-23,1,962
05/03/99,10:45:01,113,14,-23,1,962
05/03/99,10:50:01,117,14,-23,1,962
05/03/99,10:55:01,116,17,-23,1,962
05/03/99,11:00:01,94,16,-23,1,962
05/03/99,11:05:01,103,17,-23,1,962
05/03/99,11:10:01,101,27,-23,1,962
05/03/99,11:15:01,95,27,-23,1,962
05/03/99,11:20:01,112,27,-23,1,962
05/03/99,11:25:01,88,27,-23,1,962
05/03/99,11:30:01,112,17,-23,1,962
05/03/99,11:35:01,97,17,-23,1,962
05/03/99,11:40:01,97,17,-23,1,962
05/03/99,11:45:01,94,17,-23,1,962
05/03/99,11:50:01,79,27,-23,1,962
05/03/99,11:55:01,97,17,-23,1,962
05/03/99,12:00:01,98,17,-23,1,962
05/03/99,12:05:01,97,17,-23,1,962
05/03/99,12:10:01,75,17,-23,1,962
05/03/99,12:15:01,64,17,-23,1,962
05/03/99,12:20:01,54,17,-23,1,962
05/03/99,12:25:01,54,17,-23,1,962
05/03/99,12:30:01,72,21,-23,1,962
05/03/99,12:35:01,62,36,-23,1,962
05/03/99,12:40:01,62,36,-23,1,962
05/03/99,12:45:01,75,36,-23,1,962
05/03/99,12:50:01,66,36,-23,1,962
05/03/99,12:55:01,56,36,-23,1,962
05/03/99,13:00:01,82,20,-23,1,962
05/03/99,13:05:01,82,26,-23,1,962
05/03/99,13:10:01,80,26,-23,1,962
05/03/99,13:15:01,64,15,-23,1,962
05/03/99,13:20:01,64,15,-23,1,962
05/03/99,13:25:01,76,25,-23,1,962
05/03/99,13:30:01,93,25,-23,1,962
05/03/99,13:35:01,95,12,-23,1,962
05/03/99,13:40:01,105,14,-23,1,962
05/03/99,13:45:01,117,24,-23,1,962
05/03/99,13:50:01,111,24,-23,1,962
05/03/99,13:55:01,139,24,-23,1,962
05/03/99,14:00:01,112,35,-23,1,962
05/03/99,14:05:01,128,22,-23,1,962
05/03/99,14:10:01,119,35,-23,1,962
05/03/99,14:15:01,105,35,-23,1,962
05/03/99,14:20:01,64,45,-23,1,962
05/03/99,14:25:01,95,36,-23,1,962
05/03/99,14:30:01,79,36,-23,1,962
05/03/99,14:35:01,88,33,-23,1,962
05/03/99,14:40:01,119,23,-23,1,962
05/03/99,14:45:01,106,23,-23,1,962
05/03/99,14:50:01,130,23,-23,1,962
05/03/99,14:55:01,110,33,-23,1,962
05/03/99,15:00:01,108,35,-23,1,962
05/03/99,15:05:01,105,23,-23,1,962
05/03/99,15:10:01,106,8,-23,1,962
05/03/99,15:15:01,74,28,-23,1,962
05/03/99,15:20:01,95,9,-23,1,962
05/03/99,15:25:01,69,18,-23,1,962
05/03/99,15:30:01,83,2,-23,1,962
05/03/99,15:35:01,65,16,-23,1,962
05/03/99,15:40:01,104,16,-23,1,962
05/03/99,15:45:01,91,14,-23,1,962
05/03/99,15:50:01,100,2,-23,1,962
05/03/99,15:55:01,94,14,-23,1,962
05/03/99,16:00:01,80,19,-23,1,962
05/03/99,16:05:01,96,19,-23,1,962
05/03/99,16:10:01,87,9,-23,1,962
05/03/99,16:15:01,90,10,-23,1,962
05/03/99,16:20:01,88,10,-23,1,962
05/03/99,16:25:01,85,360,-23,1,962
05/03/99,16:30:01,76,359,-23,1,962
05/03/99,16:35:01,76,360,-23,1,962
05/03/99,16:40:01,86,338,-23,1,962
05/03/99,16:45:01,68,331,-23,1,962
05/03/99,16:50:01,83,340,-23,1,962
05/03/99,16:55:01,64,329,-23,1,962
05/03/99,17:00:01,65,343,-23,1,962
05/03/99,17:05:01,85,331,-23,1,962
05/03/99,17:10:01,65,347,-23,1,962
05/03/99,17:15:01,59,335,-23,1,962
05/03/99,17:20:01,44,311,-23,1,962
05/03/99,17:25:01,49,310,-23,1,962
05/03/99,17:30:01,24,312,-23,1,962
05/03/99,17:35:01,29,317,-23,1,962
05/03/99,17:40:01,38,293,-23,1,962
05/03/99,17:45:01,25,328,-23,1,962
05/03/99,17:50:01,16,332,-23,1,962
05/03/99,17:55:01,16,314,-23,1,962
05/03/99,18:00:01,10,282,-23,1,962
05/03/99,18:05:01,33,312,-23,1,962
05/03/99,18:10:01,38,293,-23,1,962
05/03/99,18:15:01,38,284,-23,1,962
05/03/99,18:20:01,27,257,-23,1,962
05/03/99,18:25:01,40,276,-23,1,962
05/03/99,18:30:01,27,302,-23,1,962
05/03/99,18:35:01,49,297,-23,1,962
05/03/99,18:40:01,31,287,-23,1,962
05/03/99,18:45:01,26,301,-23,1,962
05/03/99,18:50:01,54,319,-23,1,962
05/03/99,18:55:01,7,332,-23,1,962
05/03/99,19:00:01,26,342,-23,1,962
05/03/99,19:05:01,32,339,-23,1,962
05/03/99,19:10:01,18,2,-23,1,962
05/03/99,19:15:01,29,4,-23,1,962
05/03/99,19:20:01,29,23,-23,1,962
05/03/99,19:25:01,18,12,-23,1,962
05/03/99,19:30:01,15,343,-23,1,962
05/03/99,19:35:01,40,349,-23,1,962
05/03/99,19:40:01,30,358,-23,1,962
05/03/99,19:45:01,34,7,-23,1,962
05/03/99,19:50:01,24,344,-23,1,962
05/03/99,19:55:01,17,14,-23,1,962
05/03/99,20:00:01,29,14,-23,1,962
05/03/99,20:05:01,29,3,-23,1,962
05/03/99,20:10:01,29,3,-23,1,962
05/03/99,20:15:01,18,3,-23,1,962
05/03/99,20:20:01,18,4,-23,1,962
05/03/99,20:25:01,17,352,-23,1,962
05/03/99,20:30:01,11,352,-23,1,962
05/03/99,20:35:01,23,340,-23,1,962
05/03/99,20:40:01,24,359,-23,1,962
05/03/99,20:45:01,13,359,-23,1,962
05/03/99,20:50:01,4,324,-23,1,962
05/03/99,20:55:01,21,350,-23,1,962
05/03/99,21:00:01,6,324,-23,1,962
05/03/99,21:05:01,25,338,-23,1,962
05/03/99,21:10:01,32,309,-23,1,962
05/03/99,21:15:01,16,297,-23,1,962
05/03/99,21:20:01,27,312,-23,1,962
05/03/99,21:25:01,24,313,-23,1,962
05/03/99,21:30:01,11,324,-23,1,962
05/03/99,21:35:01,39,315,-23,1,962
05/03/99,21:40:01,35,323,-23,1,962
05/03/99,21:45:01,27,332,-23,1,962
05/03/99,21:50:01,25,315,-23,1,962
05/03/99,21:55:01,64,318,-23,1,962
05/03/99,22:00:01,59,305,-23,1,962
05/03/99,22:05:01,81,303,-23,1,962
05/03/99,22:10:01,57,303,-23,1,962
05/03/99,22:15:01,39,302,-23,1,962
05/03/99,22:20:01,55,307,-23,1,962
05/03/99,22:25:01,58,294,-23,1,962
05/03/99,22:30:01,48,304,-23,1,962
05/03/99,22:35:01,70,293,-23,1,962
05/03/99,22:40:01,46,303,-23,1,962
05/03/99,22:45:01,47,303,-23,1,962
05/03/99,22:50:01,56,292,-23,1,962
05/03/99,22:55:01,46,292,-23,1,962
05/03/99,23:00:01,48,312,-23,1,962
05/03/99,23:05:01,36,312,-23,1,962
05/03/99,23:10:01,51,312,-23,1,962
05/03/99,23:15:01,23,321,-23,1,962
05/03/99,23:20:01,49,307,-23,1,962
05/03/99,23:25:01,49,338,-23,1,962
05/03/99,23:30:01,54,328,-23,1,962
05/03/99,23:35:01,74,325,-23,1,962
05/03/99,23:40:01,87,327,-23,1,962
05/03/99,23:45:01,80,315,-23,1,962
05/03/99,23:50:01,112,318,-23,1,962
05/03/99,23:55:01,67,307,-23,1,962
05/04/99,00:00:01,76,320,-23,1,962
